Regional Weather Roundup
Issued by NWS

Home | Current Version | Previous Version | Graphics & Text | Print | Product List | Glossary Off
Versions: 1 2 3 4 5 6 7 8 9 10 11 12 13 14 15 16 17 18 19 20 21 22 23 24 25 26 27 28 29 30 31 32 33 34 35 36 37 38 39 40 41 42 43 44 45 46 47 48 49 50

309
ASUS43 KMKX 300000
RWRWI

WISCONSIN REGIONAL WEATHER ROUNDUP
NATIONAL WEATHER SERVICE MILWAUKEE/SULLIVAN WI
700 PM CDT MON MAY 29 2017

NOTE: "FAIR" INDICATES FEW OR NO CLOUDS BELOW 12,000 FEET WITH NO
SIGNIFICANT WEATHER AND/OR OBSTRUCTIONS TO VISIBILITY.

WIZ001-002-006>008-014>016-023>028-300100-
NORTHWEST WISCONSIN

CITY           SKY/WX    TMP DP  RH WIND       PRES   REMARKS
SUPERIOR ARPT  NOT AVBL
ASHLAND        CLOUDY    57  46  66 W13G24    29.74R
6HR MIN TEMP:  57; 6HR MAX TEMP:  64; 6HR PCP: TRACE;

HAYWARD        CLOUDY    58  47  66 W9        29.76R
6HR MIN TEMP:  58; 6HR MAX TEMP:  63; 6HR PCP:  0.01;

SIREN          PTSUNNY   58  46  64 NW17      29.80R
CUMBERLAND     CLOUDY    55  50  82 NW8       29.79R
RICE LAKE      HVY RAIN  56  50  81 NW14      29.79S
6HR MIN TEMP:  55; 6HR MAX TEMP:  61; 6HR PCP:  0.06;

CHETEK         PTSUNNY   58  51  76 NW6       29.78S
6HR MIN TEMP:  53; 6HR MAX TEMP:  63; 6HR PCP:  0.07;

LADYSMITH      PTSUNNY   59  49  70 W6        29.78S
6HR MIN TEMP:  54; 6HR MAX TEMP:  62; 6HR PCP:  0.01;

EAU CLAIRE     NOT AVBL
MENOMONIE      CLOUDY    61  47  61 W17G30    29.80R
6HR MIN TEMP:  60; 6HR MAX TEMP:  66;

NEW RICHMOND   PTSUNNY   58  45  60 NW15G25   29.83R
6HR MIN TEMP:  56; 6HR MAX TEMP:  65;

OSCEOLA        PTSUNNY   59  46  61 NW15G26   29.85R
$$

WIZ003>005-009-010-017-018-300100-
NORTH CENTRAL WISCONSIN

CITY           SKY/WX    TMP DP  RH WIND       PRES   REMARKS
MANITOWISH WTR CLOUDY    55  52  90 W10       29.72R
6HR MIN TEMP:  51; 6HR MAX TEMP:  60; 6HR PCP:  0.12;

ARBOR VITAE    CLOUDY    57  52  84 W8        29.72S
WOODRUFF       CLOUDY    57  52  84 W8        29.72S
RHINELANDER    RAIN      53  50  89 NW6       29.75R FOG
6HR MIN TEMP:  53; 6HR MAX TEMP:  64; 6HR PCP:  0.34;

EAGLE RIVER    CLOUDY    55  53  93 W9        29.72R
LAND O LAKES   CLOUDY    54  50  89 W6        29.73R
6HR MIN TEMP:  52; 6HR MAX TEMP:  62; 6HR PCP:  0.09;

PHILLIPS       CLOUDY    53  51  94 CALM      29.75R
6HR MIN TEMP:  53; 6HR MAX TEMP:  63; 6HR PCP:  0.09;

TOMAHAWK       LGT RAIN  57  49  74 W6        29.75R
MEDFORD        PTSUNNY   52  48  87 W6        29.77S
MERRILL        CLOUDY    54  49  82 W13G18    29.76R
6HR MIN TEMP:  53; 6HR MAX TEMP:  62; 6HR PCP:  0.03;

$$

WIZ029-030-035-036-043>047-300100-
CENTRAL WISCONSIN

CITY           SKY/WX    TMP DP  RH WIND       PRES   REMARKS
WAUSAU         CLOUDY    59  47  64 NW25G39   29.76R THUNDER
6HR MIN TEMP:  53; 6HR MAX TEMP:  65; 6HR PCP:  0.04;

MOSINEE        NOT AVBL
MARSHFIELD     LGT RAIN  55  46  71 W15G28    29.79R
6HR MIN TEMP:  55; 6HR MAX TEMP:  63; 6HR PCP:  0.02;

STEVENS POINT  MOSUNNY   59  48  67 W16G23    29.78S
WAUPACA        MOSUNNY   63  49  59 W12       29.78S
6HR MIN TEMP:  59; 6HR MAX TEMP:  68;

WAUTOMA        CLOUDY    61  50  67 SW8       29.80S
6HR MIN TEMP:  56; 6HR MAX TEMP:  68;

WISC RAPIDS    CLOUDY    62  48  60 W12G20    29.80S
6HR MIN TEMP:  54; 6HR MAX TEMP:  66; 6HR PCP:  0.05;

CAMP DOUGLAS   CLOUDY    57  52  82 W12       29.81F
$$

WIZ011>013-019>022-031-037>040-048>050-300100-
NORTHEAST WISCONSIN

CITY           SKY/WX    TMP DP  RH WIND       PRES   REMARKS
ANTIGO         CLOUDY    54  48  80 W9        29.75S
SHAWANO        MOSUNNY   61  45  56 W10       29.75R
6HR MIN TEMP:  55; 6HR MAX TEMP:  67; 6HR PCP:  0.09;

OCONTO         PTSUNNY   59  51  74 W9        29.73R
STURGEON BAY   CLOUDY    63  49  60 W12G20    29.74R
6HR MIN TEMP:  61; 6HR MAX TEMP:  67; 6HR PCP:  0.01;

GREEN BAY      MOSUNNY   63  50  62 SW14G23   29.75S
6HR MIN TEMP:  60; 6HR MAX TEMP:  68;

MANITOWOC      NOT AVBL
APPLETON       PTSUNNY   63  45  51 W16G23    29.76S
CLINTONVILLE   MOSUNNY   63  46  55 W10G17    29.76S
OSHKOSH        PTSUNNY   61  47  59 W8G17     29.79R
6HR MIN TEMP:  60; 6HR MAX TEMP:  68; 6HR PCP: TRACE;

$$

WIZ032>034-041-042-053>061-300100-
SOUTHWEST WISCONSIN

CITY           SKY/WX    TMP DP  RH WIND       PRES   REMARKS
LA CROSSE      PTSUNNY   64  51  62 W16       29.82R
6HR MIN TEMP:  58; 6HR MAX TEMP:  68; 6HR PCP:  0.07;

SPARTA         MOSUNNY   60  53  79 W3        29.83S
6HR MIN TEMP:  55; 6HR MAX TEMP:  65; 6HR PCP:  0.03;

VIROQUA        PTSUNNY   62  46  56 MISG      29.84S
6HR MIN TEMP:  58; 6HR MAX TEMP:  67;

BOSCOBEL       SUNNY     68  47  46 NW12G18   29.84S
6HR MIN TEMP:  65; 6HR MAX TEMP:  72; 6HR PCP: TRACE;

PRAIRIE DU CHI PTSUNNY   69  45  42 W15G22    29.84S
PLATTEVILLE    MOSUNNY   68  46  45 W14G24    29.85S
$$

WIZ056-057-062-063-064-067-068-300100-
SOUTH CENTRAL WISCONSIN

CITY           SKY/WX    TMP DP  RH WIND       PRES   REMARKS
REEDSBURG      CLOUDY    56  51  85 SW3       29.84F
6HR MIN TEMP:  52; 6HR MAX TEMP:  67; 6HR PCP:  0.05;

BARABOO/DELLS  TSTM      53  47  81 NW5G25    29.84R
LONE ROCK      CLOUDY    66  45  45 NW17G23   29.84R
MINERAL POINT  MOSUNNY   68  43  40 W15G24    29.84R
MADISON        MOSUNNY   65  44  46 NW7       29.82R
6HR MIN TEMP:  65; 6HR MAX TEMP:  68;

MIDDLETON      CLOUDY    65  46  49 W18G33    29.85R
6HR MIN TEMP:  65; 6HR MAX TEMP:  70;

WATERTOWN      CLOUDY    65  47  52 W8        29.82R
MONROE         MOSUNNY   68  43  40 W12       29.84S
JANESVILLE     PTSUNNY   70  43  37 W14G20    29.83R
$$

WIZ051-052-058>065-066-070>072-300100-
SOUTHEAST WISCONSIN

CITY           SKY/WX    TMP DP  RH WIND       PRES   REMARKS
MILWAUKEE      PTSUNNY   70  43  37 W14       29.82R
6HR MIN TEMP:  70; 6HR MAX TEMP:  74;

WAUKESHA       PTSUNNY   61  46  59 SW17G28   29.84R
MILWAUKEE/TIMM PTSUNNY   66  39  37 W13G22    29.82R
RACINE         PTSUNNY   69  43  38 W9G20     29.84R
6HR MIN TEMP:  69; 6HR MAX TEMP:  73;

KENOSHA        MOSUNNY   68  45  43 W13       29.83R
6HR MIN TEMP:  67; 6HR MAX TEMP:  73;

FOND DU LAC    CLOUDY    62  45  53 W12       29.81R
6HR MIN TEMP:  59; 6HR MAX TEMP:  69; 6HR PCP: TRACE;

SHEBOYGAN      LGT RAIN  61  51  70 W12G22    29.79R
6HR MIN TEMP:  61; 6HR MAX TEMP:  69; 6HR PCP: TRACE;

WEST BEND      CLOUDY    64  43  45 W14G21    29.80R
JUNEAU         CLOUDY    60  47  62 W7        29.84R
$$

LSZ147-162-300100-
LAKE SUPERIOR

STATION/POSITION TIME  TEMP    WIND        PRES    WAVE
                       AIR SEA DIR/SP/G            HT/PER
                 (UTC) (F)     (DEG/KT/KT) (MB)    (FT/S)
W MID LAKE BUOY  2250   44 38  250/ 14/ 16 1004.2R   3/ 4
DEVILS ISLAND    2300   48     240/ 19/ 20 1005.9R
SAXON HARBOR     2340   58     260/ 10/ 17 1006.4R
$$

LMZ867-665-643>646-300100-
LAKE MICHIGAN

STATION/POSITION TIME  TEMP    WIND        PRES    WAVE
                       AIR SEA DIR/SP/G            HT/PER
                 (UTC) (F)     (DEG/KT/KT) (MB)    (FT/S)
CHAMBERS ISLAND  2340   62     210/  5/ 12 1005.8S
N MID LAKE BUOY  2250   46 41  210/  8/ 10 1007.0R   2/ 4
NORTHPORT PIER   2340   62     230/  3/ 13 1005.8S
KEWAUNEE LAKESHO 2330   65     270/ 12/ 21 1006.9S
SHEBOYGAN LAKESH 2300   67     260/ 18/ 22 1007.6R
PORT WASHINGTON  2330   69     270/ 11/ 21 1009.5R
ATWATER BUOY     2209   65     260/ 12/ 14 1009.3R
MILWAUKEE LAKESH 2330   69     270/ 11/ 14   N/A
S MID LAKE BUOY  2250   55 49  260/  8/  8 1010.2S   2/ 4
KENOSHA   LAKESH 2300   71     260/ 14/ 23 1009.8
$$

TC  - TEMPERATURE IN CELSIUS
VSB - VISIBILITY IN STATUTE MILES
WCI - WIND CHILL INDEX
HX  - HEAT INDEX





USA.gov is the U.S. government's official web portal to all federal, state and local government web resources and services.